TimeCDT,TemperatureF,Dew PointF,Humidity,Sea Level PressureIn,VisibilityMPH,Wind Direction,Wind SpeedMPH,Gust SpeedMPH,PrecipitationIn,Events,Conditions,WindDirDegrees,DateUTC
12:53 AM,44.1,27.0,51,30.07,10.0,NW,15.0,27.6,N/A,,Overcast,310,2013-04-19 05:53:00
1:53 AM,42.1,26.1,53,30.07,10.0,WNW,9.2,-,N/A,,Mostly Cloudy,300,2013-04-19 06:53:00
2:53 AM,42.1,28.0,58,30.06,10.0,West,5.8,-,N/A,,Overcast,260,2013-04-19 07:53:00
3:53 AM,39.0,30.0,70,30.06,10.0,West,9.2,-,N/A,,Clear,270,2013-04-19 08:53:00
4:53 AM,39.0,28.0,65,30.06,10.0,West,9.2,-,N/A,,Clear,270,2013-04-19 09:53:00
5:53 AM,37.9,28.0,68,30.09,10.0,West,9.2,-,N/A,,Clear,270,2013-04-19 10:53:00
6:53 AM,37.9,28.0,68,30.12,10.0,West,9.2,-,N/A,,Clear,270,2013-04-19 11:53:00
7:53 AM,41.0,28.9,62,30.14,10.0,West,12.7,-,N/A,,Clear,270,2013-04-19 12:53:00
8:53 AM,43.0,28.9,58,30.15,10.0,WNW,12.7,20.7,N/A,,Clear,290,2013-04-19 13:53:00
9:53 AM,45.0,27.0,49,30.15,10.0,NW,15.0,19.6,N/A,,Partly Cloudy,320,2013-04-19 14:53:00
10:53 AM,48.0,27.0,44,30.16,10.0,WNW,19.6,23.0,N/A,,Partly Cloudy,290,2013-04-19 15:53:00
11:53 AM,50.0,26.1,39,30.17,10.0,WNW,11.5,27.6,N/A,,Clear,300,2013-04-19 16:53:00
12:53 PM,52.0,26.1,37,30.15,10.0,WNW,11.5,24.2,N/A,,Clear,300,2013-04-19 17:53:00
1:53 PM,54.0,27.0,35,30.14,10.0,WNW,15.0,21.9,N/A,,Clear,290,2013-04-19 18:53:00
2:53 PM,55.9,25.0,30,30.13,10.0,WNW,16.1,26.5,N/A,,Clear,300,2013-04-19 19:53:00
3:53 PM,57.0,28.0,33,30.11,10.0,West,17.3,25.3,N/A,,Clear,270,2013-04-19 20:53:00
4:53 PM,57.9,27.0,31,30.10,10.0,West,12.7,24.2,N/A,,Clear,270,2013-04-19 21:53:00
5:53 PM,59.0,27.0,29,30.10,10.0,West,15.0,21.9,N/A,,Clear,280,2013-04-19 22:53:00
6:53 PM,57.9,28.9,33,30.10,10.0,West,12.7,-,N/A,,Clear,270,2013-04-19 23:53:00
7:53 PM,54.0,30.0,40,30.10,10.0,SW,5.8,-,N/A,,Clear,230,2013-04-20 00:53:00
8:53 PM,53.1,30.9,43,30.11,10.0,SSW,3.5,-,N/A,,Clear,200,2013-04-20 01:53:00
9:53 PM,51.1,32.0,48,30.12,10.0,SW,3.5,-,N/A,,Clear,220,2013-04-20 02:53:00
10:53 PM,51.1,30.9,46,30.12,10.0,Calm,Calm,-,N/A,,Clear,0,2013-04-20 03:53:00
11:53 PM,46.9,35.1,63,30.13,10.0,Calm,Calm,-,N/A,,Clear,0,2013-04-20 04:53:00